Find Starlink 32417

NORAD ID: 61673 Int'l Des: 2024-193 Owner: SPXS Country: US Constellation: starlink operational
LEOCIRCULAR

当前视图

正在加载3D地球...

About Starlink 32417

Starlink 32417 (NORAD 61673) is a starlink constellation satellite (v2 mini) launched Oct 26, 2024 by SPXS of US. It operates in LEO, CIRCULAR orbit with a mass of 730.00 kg.

即将过境

Passes for default location (London). Set your location on the main map for personalized predictions.

高度历史

Loading altitude history...

两行轨道根数

1 61673U 24193N 26264.03342851 .00000292 00000-0 21164-4 0 9999
2 61673 53.1599 262.3074 0001228 90.1182 269.9961 15.31702581106456
Epoch: Sep 21, 2026 • Age: 13 hours

当前状态

高度 472.4 km
远地点 / 近地点 N/A
速度 7.63 km/s
星下点 32.78°N, 85.36°E
发射日期 Oct 26, 2024
运行时间 1.9 years
类型 internet

技术详情

分类 Payload
质量 730.00 kg
干质量 700.00 kg
长度 0.30 m
跨度 29.00 m
形状 ? Box + pan
制造商 SPXS
平台类型 Starlink V2M
阶段状态 In Orbit
所有者/国家 SPXS/US

Most Searched